Manhattan, KS

10:02 AM CST on December 16, 2017 (GMT -0600)
Manhattan Regional

Weather History for KMHK - December, 2013

Change the Weather History Date:

Friday, December 6, 2013

  Actual Average Record
Temperature  
Mean Temperature 12 °F 33 °F  
Max Temperature 18 °F 45 °F 60 °F (2001)
Min Temperature 6 °F 22 °F 5 °F (2005)
Degree Days  
Heating Degree Days 53 32  
Month to date heating degree days 196 185  
Since 1 July heating degree days 1283 1260  
Moisture  
Dew Point -3 °F    
Average Humidity 54    
Maximum Humidity 69    
Minimum Humidity 39    
Precipitation  
Precipitation 0.00 in 0.04 in 0.51 in (1998)
Month to date precipitation 0.01 0.26  
Year to date precipitation 28.61 31.79  
Sea Level Pressure  
Sea Level Pressure 30.60 in    
Wind  
Wind Speed 8 mph (North)    
Max Wind Speed 17 mph    
Max Gust Speed 23 mph    
Visibility 10 miles    
Events      
T = Trace of Precipitation, MM = Missing Value Source: NWS Daily Summary

Daily Weather History Graph

Daily Weather History Graph

Search for Another Location

Airport or City:

Trip Planner

Search our weather history database for the weather conditions in past years. The results will help you decide how hot, cold, wet, or windy it might be!

Date:

Astronomy

Dec. 06, 2013 Rise Set
Actual Time 7:31 AM CST 5:03 PM CST
Civil Twilight 7:02 AM CST 5:33 PM CST
Nautical Twilight 6:28 AM CST 6:06 PM CST
Astronomical Twilight 5:56 AM CST 6:39 PM CST
Moon 10:39 AM CST (12/6) 9:35 PM CST (12/6)
Length of Visible Light 10h 31m
Length of Day
9h 31m
Waxing Crescent, 19% of the Moon is Illuminated
Dec 6
Waxing Crescent
Dec 9
First Quarter
Dec 17
Full
Dec 25
Last Quarter
Jan 1
New

Hourly Weather History & Observations

Time (CST) Temp. Windchill Dew Point Humidity Pressure Visibility Wind Dir Wind Speed Gust Speed Precip Events Conditions
12:52 AM 16.0 °F 5.3 °F -0.0 °F 49% 30.47 in 10.0 mi North 8.1 mph - N/A   Overcast
1:52 AM 15.1 °F 4.2 °F -0.0 °F 51% 30.48 in 10.0 mi North 8.1 mph - N/A   Overcast
2:52 AM 14.0 °F 1.2 °F -2.0 °F 49% 30.49 in 10.0 mi NNE 10.4 mph - N/A   Overcast
3:52 AM 14.0 °F 1.2 °F -2.9 °F 47% 30.50 in 10.0 mi North 10.4 mph - N/A   Overcast
4:52 AM 12.9 °F 1.6 °F -2.9 °F 49% 30.50 in 10.0 mi North 8.1 mph - N/A   Overcast
5:52 AM 12.9 °F -0.9 °F -2.9 °F 49% 30.52 in 10.0 mi NNE 11.5 mph - N/A   Overcast
6:52 AM 10.9 °F -0.8 °F -2.9 °F 54% 30.53 in 10.0 mi NNE 8.1 mph - N/A   Mostly Cloudy
7:52 AM 10.0 °F -3.7 °F -2.9 °F 56% 30.56 in 10.0 mi NNE 10.4 mph - N/A   Mostly Cloudy
8:52 AM 12.0 °F -1.3 °F -2.0 °F 53% 30.55 in 10.0 mi North 10.4 mph - N/A   Partly Cloudy
9:52 AM 12.9 °F -0.9 °F -2.0 °F 51% 30.59 in 10.0 mi NNE 11.5 mph 20.7 mph N/A   Clear
10:52 AM 15.1 °F -0.6 °F -2.9 °F 45% 30.60 in 10.0 mi NNE 16.1 mph - N/A   Clear
11:52 AM 16.0 °F 1.7 °F -4.0 °F 41% 30.60 in 10.0 mi NNE 13.8 mph 23.0 mph N/A   Overcast
12:52 PM 17.1 °F 6.6 °F -4.0 °F 39% 30.58 in 10.0 mi North 8.1 mph - N/A   Overcast
1:52 PM 17.1 °F 3.6 °F -4.0 °F 39% 30.57 in 10.0 mi NNE 12.7 mph 18.4 mph N/A   Overcast
2:52 PM 16.0 °F - -4.0 °F 41% 30.59 in 10.0 mi North - - N/A   Overcast
3:52 PM 15.1 °F 6.4 °F -4.0 °F 43% 30.61 in 10.0 mi North 5.8 mph - N/A   Overcast
4:52 PM 14.0 °F 2.0 °F -4.0 °F 45% 30.62 in 10.0 mi North 9.2 mph - N/A   Overcast
5:52 PM 10.9 °F 4.7 °F -4.0 °F 51% 30.65 in 10.0 mi North 3.5 mph - N/A   Partly Cloudy
6:52 PM 9.0 °F 2.4 °F -4.0 °F 56% 30.66 in 10.0 mi NNW 3.5 mph - N/A   Clear
7:52 PM 8.1 °F 1.4 °F -2.9 °F 61% 30.70 in 10.0 mi NNW 3.5 mph - N/A   Clear
8:52 PM 7.0 °F - -2.9 °F 64% 30.72 in 10.0 mi Calm Calm - N/A   Clear
9:52 PM 7.0 °F -1.7 °F -2.9 °F 64% 30.73 in 10.0 mi North 4.6 mph - N/A   Clear
10:52 PM 8.1 °F -0.5 °F -2.0 °F 64% 30.73 in 10.0 mi North 4.6 mph - N/A   Clear
11:52 PM 8.1 °F -2.0 °F -2.0 °F 64% 30.74 in 10.0 mi NNE 5.8 mph - N/A   Clear